This is the latest recevied weather packets stored in our database for station/object PU3WIW-13. If no packets are shown the sender has not sent any weather packets the latest 10 day(s).
| Time | Temp. | Humidity | Pressure | Rain* | Wind** | Luminosity | Snow |
|---|---|---|---|---|---|---|---|
| 1777729984 | 18.89° C | 34% | 1010.2 hPa | 0 mm | - | - | - |
| 1777729805 | 18.89° C | 34% | 1010.2 hPa | 0 mm | - | - | - |
| 1777729624 | 18.89° C | 34% | 1010.2 hPa | 0 mm | - | - | - |
| 1777729445 | 18.89° C | 35% | 1010.2 hPa | 0 mm | - | - | - |
| 1777729264 | 18.89° C | 36% | 1010.1 hPa | 0 mm | - | - | - |
| 1777729085 | 18.89° C | 40% | 1010.2 hPa | 0 mm | - | - | - |
| 1777728903 | 18.89° C | 43% | 1010.1 hPa | 0 mm | - | - | - |
| 1777728725 | 18.89° C | 47% | 1010.2 hPa | 0 mm | - | - | - |
| 1777728544 | 18.89° C | 52% | 1010.4 hPa | 0 mm | - | - | - |
| 1777728364 | 18.89° C | 52% | 1010.4 hPa | 0 mm | - | - | - |
| 1777728183 | 18.89° C | 52% | 1010.2 hPa | 0 mm | - | - | - |
| 1777728003 | 18.89° C | 53% | 1010.2 hPa | 0 mm | - | - | - |
| 1777727823 | 18.33° C | 55% | 1010.1 hPa | 0 mm | - | - | - |
| 1777727642 | 18.33° C | 60% | 1009.9 hPa | 0 mm | - | - | - |
| 1777727463 | 18.33° C | 66% | 1009.7 hPa | 0 mm | - | - | - |
| 1777727283 | 18.33° C | 71% | 1010 hPa | 0 mm | - | - | - |
| 1777727102 | 18.33° C | 80% | 1009.9 hPa | 0 mm | - | - | - |
| 1777726923 | 18.33° C | 92% | 1009.7 hPa | 0 mm | - | - | - |
| 1777726743 | 18.33° C | 99% | 1009.7 hPa | 0 mm | - | - | - |
| 1777726562 | 18.33° C | 99% | 1009.9 hPa | 0 mm | - | - | - |
| 1777726382 | 18.33° C | 99% | 1009.7 hPa | 0 mm | - | - | - |
| 1777726202 | 18.33° C | 99% | 1010 hPa | 0 mm | - | - | - |
| 1777726021 | 17.78° C | 99% | 1010.2 hPa | 0 mm | - | - | - |
| 1777725842 | 17.78° C | 99% | 1010.1 hPa | 0 mm | - | - | - |
| 1777725661 | 17.78° C | 99% | 1010.2 hPa | 0 mm | - | - | - |
* Rain latest hour (hover to see other rain measurements)
** Current wind speed in m/s (hover to see current wind gust speed)